Location: Wayah Bald
(35.1806°N, 83.5603°W)
Time: 23:30:15
(UTC-05:00)

Meteor 1-27 Rocket - Visible Passes

Search period start: 10 February 2016 00:00
Search period end: 20 February 2016 00:00
Orbit: 830 x 910 km, 81.3° (Epoch: 09 February)

Date Brightness Start Highest point End Pass type
(mag) Time Alt. Az. Time Alt. Az. Time Alt. Az.
10 Feb 6.1 20:08:06 10° NW 20:12:38 24° W 20:17:07 10° SW visible
11 Feb 6.2 20:02:00 10° NW 20:06:27 23° W 20:10:51 10° SW visible
12 Feb 6.3 19:55:56 10° NW 20:00:17 22° W 20:04:35 10° SW visible
13 Feb 6.4 19:49:51 10° NW 19:54:06 21° W 19:58:18 10° SW visible
14 Feb 6.5 19:43:46 10° NW 19:47:55 20° W 19:52:02 10° SW visible
15 Feb 6.6 19:37:41 10° NW 19:41:44 20° W 19:45:44 10° SW visible
16 Feb 6.7 19:31:37 10° NW 19:35:34 19° W 19:39:27 10° SW visible
17 Feb 6.8 19:25:33 10° NW 19:29:22 18° W 19:33:08 10° SW visible
18 Feb 4.0 06:49:04 10° S 06:54:54 82° E 07:00:51 10° N visible
18 Feb 6.8 19:19:30 10° NW 19:23:11 18° W 19:26:50 10° SW visible
19 Feb 4.0 06:42:53 10° S 06:48:45 84° E 06:54:42 10° N visible
19 Feb 6.8 19:13:26 10° NW 19:17:00 17° W 19:20:31 10° WSW visible
